Kuiper-00021

operational
NORAD ID: 63736 Int'l Des: 2025-088 Owner: KUIP Country: US Constellation: kuiper
LEOCIRCULAR

About Kuiper-00021

Description loading...

Live Position

Loading 3D Globe...

Upcoming Passes

Altitude History

Altitude vs Time

uPlot chart will show altitude changes over time

Two-Line Element Set

1 63736U 25088N 26061.49253894 .00021576 00000-0 28485-2 0 9997
2 63736 51.9001 135.9098 0003355 67.9058 292.2261 14.79955913 46411
Epoch: Mar 2, 2026 • Age: 27 hours

Current Status

Altitude 633.2 km
Velocity 7.55 km/s
Sub-Earth Point 51.71°N, 11.51°E
Launch Date Apr 28, 2025
Age 0.8 years
Type internet

Technical Details

Classification Payload
Mass 490.00 kg
Dry Mass 490.00 kg
Total Mass 490.00 kg
Length 1.80 m
Diameter 0.70 m
Span 5.00 m
Shape Box + 2 pan
Manufacturer KUIP
Bus Type Kuiper
Phase Status In Orbit
Owner/State KUIP/US

Large Constellations

Loading constellations...